Вернуться в каталог

SL-12 DEB

LostHEO
NORAD 29458·DEBRIS·🇷🇺 Russia

Запущен May 31, 1989 с Baikonur Cosmodrome

Loading…

Ближайшие Пролёты (ближайшие 24 часа)

TLE

УстаревшееSource: Space-Track

Эпоха: Jul 4, 2016, 09:10 UTC

1 29458U 89039DC  16186.38234970 -.00000005  00000-0  00000+0 0  9990
2 29458  65.1921 148.0048 4649432 147.4425   0.8013  4.64349342160613

Отслеживайте SL-12 DEB в реальном времени с AllMySat

Download on the App Store